Location: Ca�n Batista
(41.4099°N, 1.7752°E)
Time: 14:56:25
(UTC+00:00)

SL-08 R/B - Pass Details

Date: 03 March 2021
Orbit: 949 x 1019 km, 82.9° (Epoch: 22 April)

Event Time Altitude Azimuth Distance (km) Brightness Sun altitude
Rises 20:04:53 0° 182° (S) 3,717 7.4 -26.6°
Enters shadow 20:06:07 - 181° (S) 3,254 7.1 -26.8°
Exits shadow 20:11:53 49° 174° (S) 1,289 4.9 -27.9°
Maximum altitude 20:13:48 81° 95° (E) 1,034 4.4 -28.2°
Drops below altitude 10° 20:20:18 10° 9° (N) 2,816 7.0 -29.4°
Sets 20:22:51 0° 9° (N) 3,770 7.7 -29.8°
